TKJ8WK LTFJ-LTBH

Flight info

Callsign TKJ8WK
Flight time 0h 37m
Altitude 28000
Route IVGUS Y226 BIG
Aircraft A21N/M-SDE2E3FGHIRWXY/LB1

Departure

Time 2026-04-25 18:54
Airport Istanbul Sabiha Gökçen International Airport (LTFJ)

Arrival

Time 2026-04-25 19:31
Airport Çanakkale Airport (LTBH)
Time Latitude Longitude Altitude Speed Heading
2026-04-25 18:30 40.90508 29.31830 320 ft 0 kts 154°
2026-04-25 18:40 40.90512 29.31828 320 ft 2 kts 154°
2026-04-25 18:41 40.90526 29.31819 320 ft 2 kts 154°
2026-04-25 18:41 40.90540 29.31811 320 ft 2 kts 154°
2026-04-25 18:41 40.90554 29.31803 320 ft 2 kts 173°
2026-04-25 18:41 40.90569 29.31804 320 ft 2 kts 195°
2026-04-25 18:42 40.90583 29.31812 320 ft 2 kts 218°
2026-04-25 18:42 40.90586 29.31817 320 ft 2 kts 226°
2026-04-25 18:42 40.90595 29.31834 321 ft 1 kts 245°
2026-04-25 18:42 40.90596 29.31836 321 ft 0 kts 244°
2026-04-25 18:45 40.90590 29.31820 320 ft 3 kts 244°
2026-04-25 18:45 40.90575 29.31779 320 ft 6 kts 243°
2026-04-25 18:46 40.90550 29.31715 320 ft 9 kts 243°
2026-04-25 18:46 40.90519 29.31629 320 ft 11 kts 244°
2026-04-25 18:46 40.90484 29.31532 320 ft 12 kts 244°
2026-04-25 18:46 40.90449 29.31446 320 ft 7 kts 218°
2026-04-25 18:47 40.90390 29.31451 320 ft 9 kts 155°
2026-04-25 18:47 40.90328 29.31491 320 ft 9 kts 153°
2026-04-25 18:47 40.90268 29.31464 320 ft 11 kts 238°
2026-04-25 18:47 40.90230 29.31368 320 ft 12 kts 243°
2026-04-25 18:48 40.90190 29.31264 320 ft 13 kts 243°
2026-04-25 18:48 40.90150 29.31153 320 ft 13 kts 244°
2026-04-25 18:48 40.90109 29.31039 320 ft 14 kts 244°
2026-04-25 18:48 40.90065 29.30918 320 ft 14 kts 245°
2026-04-25 18:49 40.90020 29.30793 320 ft 15 kts 244°
2026-04-25 18:49 40.89971 29.30663 320 ft 15 kts 243°
2026-04-25 18:49 40.89921 29.30532 320 ft 16 kts 245°
2026-04-25 18:49 40.89874 29.30394 320 ft 16 kts 245°
2026-04-25 18:50 40.89838 29.30301 320 ft 17 kts 243°
2026-04-25 18:50 40.89761 29.30094 314 ft 20 kts 244°
2026-04-25 18:50 40.89700 29.29926 315 ft 19 kts 245°
2026-04-25 18:50 40.89645 29.29771 316 ft 18 kts 243°
2026-04-25 18:51 40.89582 29.29608 313 ft 21 kts 243°
2026-04-25 18:51 40.89560 29.29547 311 ft 21 kts 244°
2026-04-25 18:51 40.89457 29.29284 305 ft 12 kts 224°
2026-04-25 18:51 40.89397 29.29260 303 ft 7 kts 171°
2026-04-25 18:52 40.89365 29.29275 303 ft 2 kts 155°
2026-04-25 18:52 40.89341 29.29289 303 ft 4 kts 155°
2026-04-25 18:52 40.89307 29.29310 303 ft 6 kts 154°
2026-04-25 18:52 40.89280 29.29349 303 ft 5 kts 96°
2026-04-25 18:53 40.89297 29.29411 305 ft 17 kts 64°
2026-04-25 18:53 40.89460 29.29849 316 ft 86 kts 62°
2026-04-25 18:53 40.89821 29.30829 320 ft 146 kts 64°
2026-04-25 18:53 40.90310 29.32173 594 ft 169 kts 63°
2026-04-25 18:54 40.91345 29.34971 1900 ft 172 kts 63°
2026-04-25 18:54 40.91872 29.36396 2390 ft 178 kts 63°
2026-04-25 18:54 40.92436 29.37921 2683 ft 193 kts 64°
2026-04-25 18:55 40.92986 29.39635 2976 ft 209 kts 76°
2026-04-25 18:55 40.92954 29.41616 3214 ft 229 kts 105°
2026-04-25 18:55 40.92127 29.43494 3533 ft 247 kts 135°
2026-04-25 18:55 40.90654 29.44698 4103 ft 253 kts 155°
2026-04-25 18:56 40.89037 29.45681 4785 ft 256 kts 155°
2026-04-25 18:56 40.87418 29.46693 5397 ft 262 kts 155°
2026-04-25 18:56 40.85717 29.47753 5925 ft 273 kts 158°
2026-04-25 18:56 40.83865 29.48204 6595 ft 273 kts 187°
2026-04-25 18:57 40.82110 29.47386 7319 ft 271 kts 215°
2026-04-25 18:57 40.80684 29.45730 8021 ft 273 kts 224°
2026-04-25 18:57 40.79299 29.43992 8703 ft 277 kts 223°
2026-04-25 18:57 40.78847 29.43431 8923 ft 278 kts 223°
2026-04-25 18:58 40.76455 29.40499 10041 ft 284 kts 223°
2026-04-25 18:58 40.73456 29.36862 10850 ft 309 kts 223°
2026-04-25 18:58 40.71867 29.34866 11140 ft 324 kts 229°
2026-04-25 18:59 40.70449 29.29127 11837 ft 346 kts 275°
2026-04-25 18:59 40.71792 29.23011 12997 ft 352 kts 288°
2026-04-25 19:00 40.73327 29.16835 14121 ft 358 kts 288°
2026-04-25 19:00 40.74091 29.13702 14670 ft 362 kts 288°
2026-04-25 19:01 40.75623 29.07358 15778 ft 366 kts 288°
2026-04-25 19:01 40.76362 29.04173 16293 ft 369 kts 286°
2026-04-25 19:01 40.76933 29.00851 16749 ft 374 kts 281°
2026-04-25 19:01 40.77283 28.97409 17221 ft 378 kts 276°
2026-04-25 19:02 40.77691 28.90445 18177 ft 384 kts 275°
2026-04-25 19:02 40.77885 28.86925 18638 ft 387 kts 275°
2026-04-25 19:02 40.78086 28.83387 19084 ft 389 kts 275°
2026-04-25 19:03 40.78357 28.78670 19670 ft 393 kts 275°
2026-04-25 19:03 40.78700 28.72620 20405 ft 397 kts 275°
2026-04-25 19:03 40.78906 28.68976 20815 ft 399 kts 275°
2026-04-25 19:04 40.79304 28.61632 21606 ft 405 kts 274°
2026-04-25 19:04 40.79362 28.57936 21989 ft 408 kts 271°
2026-04-25 19:05 40.79135 28.50417 22752 ft 413 kts 269°
2026-04-25 19:05 40.78856 28.42849 23452 ft 418 kts 269°
2026-04-25 19:05 40.78714 28.38978 23797 ft 420 kts 269°
2026-04-25 19:06 40.78574 28.35160 24126 ft 423 kts 269°
2026-04-25 19:06 40.78287 28.27358 24765 ft 427 kts 269°
2026-04-25 19:06 40.78255 28.23458 25081 ft 428 kts 272°
2026-04-25 19:07 40.78498 28.15601 25700 ft 432 kts 274°
2026-04-25 19:07 40.78638 28.11657 26000 ft 434 kts 274°
2026-04-25 19:08 40.78912 28.03679 26579 ft 438 kts 274°
2026-04-25 19:08 40.79045 27.99669 26866 ft 439 kts 274°
2026-04-25 19:09 40.79430 27.87514 27689 ft 444 kts 274°
2026-04-25 19:09 40.79481 27.84750 27866 ft 446 kts 273°
2026-04-25 19:09 40.78200 27.75460 28006 ft 454 kts 242°
2026-04-25 19:10 40.76249 27.72136 28012 ft 456 kts 224°
2026-04-25 19:10 40.73679 27.69719 28021 ft 457 kts 209°
2026-04-25 19:10 40.70862 27.67726 28018 ft 457 kts 208°
2026-04-25 19:11 40.65236 27.63790 28015 ft 457 kts 208°
2026-04-25 19:11 40.59660 27.59804 28014 ft 457 kts 208°
2026-04-25 19:11 40.56872 27.57796 27988 ft 457 kts 209°
2026-04-25 19:12 40.54096 27.55751 27358 ft 458 kts 210°
2026-04-25 19:12 40.51339 27.53682 26746 ft 456 kts 210°
2026-04-25 19:12 40.48618 27.51633 26215 ft 451 kts 210°
2026-04-25 19:12 40.45921 27.49606 25704 ft 446 kts 210°
2026-04-25 19:13 40.43209 27.47576 25196 ft 442 kts 210°
2026-04-25 19:13 40.40524 27.45570 24698 ft 438 kts 209°
2026-04-25 19:13 40.37900 27.43613 24204 ft 434 kts 209°
2026-04-25 19:13 40.35282 27.41665 23715 ft 430 kts 209°
2026-04-25 19:14 40.32697 27.39737 23228 ft 426 kts 210°
2026-04-25 19:14 40.31859 27.39048 23053 ft 426 kts 214°
2026-04-25 19:14 40.28866 27.34044 22203 ft 419 kts 250°
2026-04-25 19:14 40.28301 27.30356 21712 ft 413 kts 269°
2026-04-25 19:15 40.28313 27.26591 21264 ft 408 kts 272°
2026-04-25 19:15 40.28350 27.22939 20806 ft 405 kts 271°
2026-04-25 19:15 40.28376 27.19263 20321 ft 403 kts 271°
2026-04-25 19:15 40.28387 27.15571 19851 ft 399 kts 271°
2026-04-25 19:16 40.28387 27.11947 19389 ft 396 kts 271°
2026-04-25 19:16 40.28380 27.08347 18924 ft 393 kts 271°
2026-04-25 19:16 40.28370 27.04783 18439 ft 391 kts 271°
2026-04-25 19:16 40.28357 27.01211 17972 ft 388 kts 271°
2026-04-25 19:17 40.28344 26.97686 17494 ft 386 kts 271°
2026-04-25 19:17 40.28329 26.94202 17032 ft 383 kts 270°
2026-04-25 19:17 40.28312 26.90724 16560 ft 381 kts 270°
2026-04-25 19:17 40.28294 26.87276 16098 ft 378 kts 270°
2026-04-25 19:18 40.28276 26.83835 15643 ft 376 kts 270°
2026-04-25 19:18 40.28260 26.80402 15198 ft 374 kts 270°
2026-04-25 19:18 40.28242 26.76994 14733 ft 371 kts 270°
2026-04-25 19:18 40.28224 26.73637 14280 ft 369 kts 270°
2026-04-25 19:19 40.28203 26.70256 13818 ft 367 kts 270°
2026-04-25 19:19 40.28182 26.66886 13369 ft 365 kts 270°
2026-04-25 19:19 40.28160 26.63587 12921 ft 363 kts 270°
2026-04-25 19:19 40.28145 26.61405 12601 ft 361 kts 270°
2026-04-25 19:20 40.28113 26.57005 12003 ft 358 kts 270°
2026-04-25 19:20 40.28090 26.53750 11551 ft 356 kts 270°
2026-04-25 19:20 40.28067 26.50538 11119 ft 353 kts 269°
2026-04-25 19:20 40.28042 26.47338 10714 ft 349 kts 269°
2026-04-25 19:21 40.28013 26.44224 10544 ft 337 kts 269°
2026-04-25 19:21 40.27488 26.38432 10203 ft 313 kts 242°
2026-04-25 19:21 40.26094 26.36303 10070 ft 299 kts 220°
2026-04-25 19:22 40.24523 26.34609 9836 ft 292 kts 219°
2026-04-25 19:22 40.22953 26.32893 9450 ft 291 kts 219°
2026-04-25 19:22 40.19871 26.29456 8728 ft 287 kts 220°
2026-04-25 19:23 40.18367 26.27756 8382 ft 285 kts 220°
2026-04-25 19:23 40.15398 26.24393 7691 ft 281 kts 220°
2026-04-25 19:23 40.13924 26.22721 7343 ft 279 kts 220°
2026-04-25 19:24 40.12470 26.21076 6981 ft 278 kts 221°
2026-04-25 19:24 40.11007 26.19421 6545 ft 280 kts 221°
2026-04-25 19:24 40.08047 26.16071 5602 ft 285 kts 221°
2026-04-25 19:25 40.04668 26.13651 4830 ft 279 kts 179°
2026-04-25 19:25 40.02843 26.14317 4444 ft 275 kts 145°
2026-04-25 19:25 40.01508 26.16051 4122 ft 269 kts 127°
2026-04-25 19:26 40.00355 26.17947 3796 ft 266 kts 127°
2026-04-25 19:26 39.99177 26.19814 3508 ft 262 kts 128°
2026-04-25 19:26 39.98068 26.21634 3460 ft 246 kts 118°
2026-04-25 19:26 39.97703 26.23671 3445 ft 231 kts 80°
2026-04-25 19:27 39.98365 26.25518 3225 ft 224 kts 46°
2026-04-25 19:27 39.98741 26.25993 3149 ft 222 kts 40°
2026-04-25 19:27 40.00722 26.27945 2931 ft 206 kts 38°
2026-04-25 19:27 40.01797 26.29070 2889 ft 190 kts 39°
2026-04-25 19:28 40.02784 26.30169 2626 ft 180 kts 41°
2026-04-25 19:28 40.03687 26.31202 2362 ft 167 kts 41°
2026-04-25 19:28 40.04527 26.32165 2124 ft 155 kts 41°
2026-04-25 19:28 40.05329 26.33083 1951 ft 149 kts 41°
2026-04-25 19:29 40.06107 26.33972 1766 ft 147 kts 41°
2026-04-25 19:29 40.06868 26.34842 1577 ft 144 kts 41°
2026-04-25 19:29 40.07628 26.35709 1380 ft 142 kts 41°
2026-04-25 19:29 40.08371 26.36558 1189 ft 141 kts 40°
2026-04-25 19:30 40.08857 26.37111 1061 ft 141 kts 41°
2026-04-25 19:30 40.09844 26.38237 808 ft 140 kts 41°
2026-04-25 19:30 40.10587 26.39083 616 ft 140 kts 41°
2026-04-25 19:30 40.11313 26.39908 429 ft 139 kts 41°
2026-04-25 19:31 40.12058 26.40734 235 ft 138 kts 41°
2026-04-25 19:31 40.12778 26.41567 69 ft 137 kts 41°
2026-04-25 19:31 40.13404 26.42284 32 ft 84 kts 41°
2026-04-25 19:31 40.13637 26.42553 34 ft 18 kts 38°
2026-04-25 19:32 40.13707 26.42563 33 ft 10 kts 322°
2026-04-25 19:32 40.13754 26.42498 33 ft 7 kts 309°
2026-04-25 19:32 40.13792 26.42450 33 ft 7 kts 337°
2026-04-25 19:32 40.13808 26.42439 33 ft 7 kts 325°
2026-04-25 19:33 40.13843 26.42392 33 ft 0 kts 311°